Location: Palau
(42.3086°N, 3.1507°E)
Time: 15:53:55
(UTC+00:00)

ISS - Visible Passes

Search period start: 25 February 2021 00:00
Search period end: 07 March 2021 00:00
Orbit: 417 x 422 km, 51.6° (Epoch: 26 February)

Date Brightness Start Highest point End Pass type
(mag) Time Alt. Az. Time Alt. Az. Time Alt. Az.
25 Feb -0.6 03:50:13 15° ENE 03:50:13 15° ENE 03:50:58 10° ENE visible
25 Feb -2.6 05:23:12 21° WNW 05:24:38 29° NNW 05:27:38 10° NE visible
26 Feb -2.7 04:37:43 36° N 04:37:43 36° N 04:40:17 10° NE visible
27 Feb -0.8 03:52:10 15° NE 03:52:10 15° NE 03:52:54 10° NE visible
27 Feb -1.9 05:25:08 14° NW 05:26:52 19° NNW 05:29:25 10° NE visible
28 Feb -2.0 04:39:31 23° N 04:39:31 23° N 04:41:59 10° NE visible
01 Mar -0.8 03:53:52 15° NE 03:53:52 15° NE 03:54:35 10° NE visible
01 Mar -1.5 05:26:56 10° NW 05:29:11 17° N 05:31:26 10° NE visible
02 Mar -1.6 04:41:08 17° NNW 04:41:27 17° N 04:43:48 10° NE visible
03 Mar -0.9 03:55:25 14° NNE 03:55:25 14° NNE 03:56:16 10° NE visible
03 Mar -1.5 05:29:03 10° NW 05:31:27 18° N 05:33:51 10° NE visible
04 Mar -1.5 04:42:40 15° NNW 04:43:42 17° N 04:45:59 10° NE visible
05 Mar -1.0 03:56:57 15° NNE 03:56:57 15° NNE 03:58:12 10° NE visible
05 Mar -1.9 05:30:45 10° NW 05:33:36 25° NNE 05:36:27 10° ENE visible
06 Mar -1.6 04:44:12 15° NNW 04:45:54 20° NNE 04:48:30 10° ENE visible
